Weather in Orlovka

Russia / Krasnoyarsk Krai     56°53′26″N   90°55′36″E
temp.,
°C
wind,
m/s
gust,
m/s
humid.,
%
clouds,
%
prec.,
mm/h
press.,
hPa
HPBL,
m
17 april, sat
sat1701:00−1wnw3993100 4.4 1012615
04:00−4nw499195 0.2 1015543
07:00−6n4789100 0.6 1019644
10:00−6nnw45625 0.0 1021990
13:00−3nnw34535 0.0 10221308
16:00−1nw235194 0.0 10221495
19:00−2w116420 0.0 102360
22:00−6ssw228928 0.0 102440
18 april, sun
sun1801:00−6s26862 0.0 1024127
04:00−6s388794 0.0 1022215
07:00−4s3980100 0.0 1020427
10:00−1s51061100 0.0 1017952
13:00+2ssw6951100 0.0 10141556
16:00+4ssw4955100 0.0 10121884
19:00+2ssw4967100 0.0 1010858
22:000s41076100 0.0 1008533
19 april, mon
mon1901:000se41194100 0.2 1002502
04:000sse41198100 3.8 995780
07:00+1sw61493100 5.5 9921116
10:00−1sw81384100 0.9 9941142
13:00−5w91586100 1.9 10041188
16:00−6wnw81688100 1.6 10121267
19:00−5wnw61272100 1.8 10171537
22:00−7w51080100 0.1 10211066
20 april, tue
tue2001:00−9w498566 0.2 1023731
04:00−10w498979 0.0 1024531
07:00−10w3889100 0.0 1025591
10:00−7w4769100 0.1 10261493
13:00−5w4665100 0.2 10251550
16:00−3w4557100 0.2 10241965
19:00−4wsw3672100 0.4 1024647
22:00−9ssw2593100 0.1 102570
21 april, wed
wed2101:00−7s2790100 0.1 1024162
04:00−7sse2788100 0.0 1023207
07:00−5sse2686100 0.0 1023266
10:00−2s3570100 0.1 10231131
13:00−1sse2472100 0.5 10231163
16:000se2370100 0.7 1024993
19:00−1e2575100 1.3 1025247
22:00−4ene3989100 0.0 1027209